Regional Weather Roundup
Issued by NWS

Home | Current Version | Previous Version | Graphics & Text | Print | Product List | Glossary On
Versions: 1 2 3 4 5 6 7 8 9 10 11 12 13 14 15 16 17 18 19 20 21 22 23 24 25 26 27 28 29 30 31 32 33 34 35 36 37 38 39 40 41 42 43 44 45 46 47 48 49 50
000
ASUS43 KDTX 221810
RWRMI
MICHIGAN HOURLY REGIONAL WEATHER ROUNDUP
NATIONAL WEATHER SERVICE DETROIT/PONTIAC MI
200 PM EDT WED MAR 22 2017

NOTE: "FAIR" INDICATES FEW OR NO CLOUDS BELOW 12,000 FEET WITH NO
SIGNIFICANT WEATHER AND/OR OBSTRUCTION TO VISIBILITY.

MIZ047>049-052>055-059>063-066>070-074>076-081>083-221900-
SOUTHEAST LOWER MICHIGAN

CITY           SKY/WX    TMP DP  RH WIND       PRES   REMARKS
ADRIAN         SUNNY     31  12  45 N7        30.57S WCI  24
6HR MIN TEMP:  20; 6HR MAX TEMP:  32;

ALMA           SUNNY     29   3  33 SE3       30.59S
ANN ARBOR      SUNNY     32   9  38 VRB3      30.55F
BAD AXE        MOSUNNY   24   9  51 N10G17    30.59S WCI  14
6HR MIN TEMP:  19; 6HR MAX TEMP:  26;

CARO           SUNNY     28  12  50 NE3       30.58S
DETROIT CITY   SUNNY     32   8  36 N12G17    30.57S WCI  23
6HR MIN TEMP:  22; 6HR MAX TEMP:  32;

DETROIT        MOSUNNY   34   9  35 N5        30.57F WCI  30
6HR MIN TEMP:  22; 6HR MAX TEMP:  34;

FLINT          SUNNY     31   9  39 N8        30.57F WCI  23
6HR MIN TEMP:  19; 6HR MAX TEMP:  31;

GROSSE ILE     SUNNY     32  10  40 NE9G20    30.56F WCI  24
6HR MIN TEMP:  22; 6HR MAX TEMP:  32;

HILLSDALE      SUNNY     32  10  40 NW8       30.53S WCI  25
HOWELL         SUNNY     29   6  36 CALM      30.55S
6HR MIN TEMP:  19; 6HR MAX TEMP:  31;


CITY           SKY/WX    TMP DP  RH WIND       PRES   REMARKS
JACKSON        SUNNY     31   8  38 VRB5      30.55F WCI  26
6HR MIN TEMP:  18; 6HR MAX TEMP:  33;

LAMBERTVILLE   SUNNY     33  13  42 N9        30.57S WCI  26
6HR MIN TEMP:  22; 6HR MAX TEMP:  34;

LANSING        SUNNY     31   5  33 MISG      30.58S
6HR MIN TEMP:  17; 6HR MAX TEMP:  31;

LAPEER         FAIR      30   9  41 NE8       30.56F WCI  23
6HR MIN TEMP:  21; 6HR MAX TEMP:  30;

MASON          SUNNY     30  11  45 NE5       30.57S WCI  25
MONROE         SUNNY     33  15  48 E5        30.57S WCI  28
6HR MIN TEMP:  22; 6HR MAX TEMP:  33;

MT. CLEMENS    MOSUNNY   30  11  45 VRB6      30.55S WCI  24
6HR MIN TEMP:  21; 6HR MAX TEMP:  31;

PONTIAC        MOSUNNY   31   8  38 NE8       30.53F WCI  23
6HR MIN TEMP:  19; 6HR MAX TEMP:  32;

PORT HOPE        N/A     24  12  60 N8        30.59S WCI  15
6HR MIN TEMP:  20; 6HR MAX TEMP:  26;

PORT HURON     MOSUNNY   27  10  50 NE10G17   30.59S WCI  17
TRI CITIES     SUNNY     27   6  41 NE5       30.60F WCI  22
6HR MIN TEMP:  20; 6HR MAX TEMP:  27;

MIDLAND        FAIR      30   4  33 SE3       30.58F
6HR MIN TEMP:  20; 6HR MAX TEMP:  30;

TROY           SUNNY     32   4  31 N9        30.58S WCI  24
SAGINAW HB     SUNNY     30   5  34 NE6       30.59S WCI  24
$$
MIZ043>046-050>051-056>058-064>065-071>073-077>080-221900-
SOUTHWEST LOWER MICHIGAN

CITY           SKY/WX    TMP DP  RH WIND       PRES   REMARKS
BATTLE CREEK   SUNNY     33  10  38 E7        30.56S WCI  27
6HR MIN TEMP:  18; 6HR MAX TEMP:  33;

BENTON HARBOR  SUNNY     33  13  43 VRB6      30.58F WCI  28
6HR MIN TEMP:  21; 6HR MAX TEMP:  34;

BIG RAPIDS     SUNNY     30   1  29 NE5       30.55F WCI  25
6HR MIN TEMP:  19; 6HR MAX TEMP:  30;

COLDWATER      SUNNY     32   9  37 E5        30.56S WCI  27
6HR MIN TEMP:  20; 6HR MAX TEMP:  32;

FREMONT        FAIR      32   4  30 SW3       30.57F
HOLLAND        SUNNY     32  11  41 VRB6      30.59F WCI  26
6HR MIN TEMP:  21; 6HR MAX TEMP:  33;

GRAND RAPIDS   MOSUNNY   32  10  40 VRB3      30.57F
6HR MIN TEMP:  19; 6HR MAX TEMP:  32;

IONIA          FAIR      30   9  41 E5        30.57F WCI  25
6HR MIN TEMP:  19; 6HR MAX TEMP:  30;

KALAMAZOO      SUNNY     33   7  33 SE6       30.57F WCI  28
6HR MIN TEMP:  17; 6HR MAX TEMP:  33;

LUDINGTON      SUNNY     31  15  51 W10G17    30.59S WCI  22
6HR MIN TEMP:  22; 6HR MAX TEMP:  32;

MARSHALL       SUNNY     33   9  37 CALM      30.55F
6HR MIN TEMP:  19; 6HR MAX TEMP:  33;

MOUNT PLEASANT SUNNY     30   2  30 NW5       30.57F WCI  25
6HR MIN TEMP:  20; 6HR MAX TEMP:  30;

MUSKEGON       MOSUNNY   33  12  41 W8        30.59F WCI  26
6HR MIN TEMP:  20; 6HR MAX TEMP:  33;

SOUTH HAVEN    SUNNY     32  15  49 N7        30.57F WCI  26
$$
MIZ016>042-221900-
NORTHERN LOWER MICHIGAN

CITY           SKY/WX    TMP DP  RH WIND       PRES   REMARKS
ALPENA         SUNNY     28  -1  28 N6        30.58F WCI  22
6HR MIN TEMP:  15; 6HR MAX TEMP:  28;

BEAVER ISLAND  SUNNY     27   7  42 NW3       30.61S
6HR MIN TEMP:  17; 6HR MAX TEMP:  27;

BELLAIRE       SUNNY     28   2  32 N3        30.60F
6HR MIN TEMP:  17; 6HR MAX TEMP:  28;

CADILLAC       SUNNY     28  -2  27 CALM      30.51F
CHARLEVOIX     SUNNY     24  10  56 NW8       30.64F WCI  15
6HR MIN TEMP:  17; 6HR MAX TEMP:  24;

FRANKFORT      SUNNY     29  12  49 NW8       30.60S WCI  21
GAYLORD        SUNNY     26   0  32 NW5       30.54R WCI  20
6HR MIN TEMP:  14; 6HR MAX TEMP:  26;

GRAYLING       SUNNY     28  -2  26 NW5       30.55S WCI  23
6HR MIN TEMP:  13; 6HR MAX TEMP:  29;

HARBOR SPRINGS SUNNY     25   9  51 W10G16    30.60S WCI  15
HOUGHTON LAKE  SUNNY     27   2  34 SW9       30.55S WCI  18
6HR MIN TEMP:  14; 6HR MAX TEMP:  27;

MANISTEE       SUNNY     30  15  53 NW12G18   30.59S WCI  20
OSCODA         SUNNY     26   9  47 E7        30.58S WCI  19
6HR MIN TEMP:  17; 6HR MAX TEMP:  28;

PELLSTON       SUNNY     27   2  34 VRB5      30.59F WCI  22
6HR MIN TEMP:  11; 6HR MAX TEMP:  27;

ROGERS CITY    SUNNY     23   6  47 N8        30.60S WCI  14
TRAVERSE CITY  MOSUNNY   26   8  46 NE7       30.60F WCI  18
6HR MIN TEMP:  21; 6HR MAX TEMP:  27;

$$
MIZ007>008-015-221900-
EASTERN UPPER MICHIGAN

CITY           SKY/WX    TMP DP  RH WIND       PRES   REMARKS
KINROSS        SUNNY     22   6  50 NW9G17    30.57F WCI  12
6HR MIN TEMP:  10; 6HR MAX TEMP:  23;

MACKINAC ISLAN SUNNY     21   6  53 SW6       30.59S WCI  13
6HR MIN TEMP:  13; 6HR MAX TEMP:  23;

NEWBERRY       SUNNY     25   6  44 NW5       30.57S WCI  19
6HR MIN TEMP:  13; 6HR MAX TEMP:  26;

S. S. MARIE    SUNNY     23   3  42 W10G17    30.57S WCI  12
6HR MIN TEMP:  13; 6HR MAX TEMP:  24;

MUNISING         N/A     27  13  55 NE8       30.60F WCI  19
6HR MIN TEMP:  20; 6HR MAX TEMP:  27;

$$
MIZ004>006-011>014-085-221900-
CENTRAL UPPER MICHIGAN

CITY           SKY/WX    TMP DP  RH WIND       PRES   REMARKS
MANISTIQUE     SUNNY     28  12  50 S9        30.58F WCI  20
ESCANABA       SUNNY     25  13  60 SE14      30.62S WCI  13
6HR MIN TEMP:  13; 6HR MAX TEMP:  26;

MENOMINEE      FLURRIES  27  13  55 S6        30.64  WCI  20
SAWYER-GWINN   SUNNY     27   9  46 N3        30.56S
$$
MIZ001>003-009>011-084-221900-
WESTERN UPPER MICHIGAN

CITY           SKY/WX    TMP DP  RH WIND       PRES   REMARKS
IRON MOUNTAIN  SUNNY     29   5  36 VRB5      30.55F WCI  24
HOUGHTON       SUNNY     25   5  42 SW6       30.54F WCI  18
6HR MIN TEMP:   6; 6HR MAX TEMP:  25;

COPPER HARBOR    N/A     25  10  53 NE7       30.59F WCI  17
6HR MIN TEMP:  19; 6HR MAX TEMP:  25;

IRONWOOD       SUNNY     30   7  37 SW6       30.53F WCI  24
6HR MIN TEMP:   9; 6HR MAX TEMP:  30; 6HR PCP: TRACE;

$$

ABBREVIATIONS USED IN REMARKS
   TC - TEMPERATURE IN CELSIUS
  WCI - WIND CHILL INDEX
   HX - HEAT INDEX
  VSB - VISIBILITY





USA.gov is the U.S. government's official web portal to all federal, state and local government web resources and services.